Dewpoint
-12 -12 -12 -13 -13 -13 -13 -13 -12 -7 -11 -15 -16 -20 -21 -5 4 8 8 9 10 10 8 6 4 5 5 7 7 7 8 -3 2 3 6 7 7 8
-11 -11 -11 -12 -12 -12 -11 -11 -11 -11 -8 -11 -11 -13 -16 -19 -9 4 8 8 8 9 9 8 6 5 6 7 6 5 5 6 5 6 5 4 7 8
-10 -11 -11 -11 -11 -12 -12 -11 -11 -10 -9 -13 -13 -13 -16 -19 -21 -0 5 8 9 8 8 9 8 6 6 5 7 6 3 8 9 8 7 6 4 6
-10 -10 -10 -10 -10 -10 -11 -11 -11 -11 -11 -12 -11 -10 -10 -12 -17 -21 -5 0 8 8 8 9 9 7 6 5 7 6 7 5 9 10 8 7 5 4
-10 -10 -10 -10 -10 -9 -9 -9 -10 -10 -10 -10 -10 -10 -10 -8 -7 -12 -18 -18 5 7 8 8 8 8 7 7 5 7 6 7 6 9 7 7 7 7
-12 -11 -10 -9 -9 -9 -9 -9 -9 -9 -9 -9 -10 -9 -8 -9 -8 -7 -7 -12 -18 3 7 8 8 9 8 7 7 5 6 7 7 6 6 6 7 6
-9 -9 -8 -8 -8 -8 -8 -8 -7 -8 -8 -8 -8 -7 -7 -6 -6 -6 -7 -10 -14 -19 -2 7 7 8 9 8 7 7 5 6 8 9 7 6 6 6
-9 -9 -9 -8 -8 -8 -8 -7 -7 -7 -8 -8 -7 -7 -7 -7 -6 -5 -7 -6 -7 -15 -18 6 7 7 8 9 8 8 6 5 6 7 7 6 6 6
-10 -10 -9 -8 -9 -8 -8 -8 -8 -8 -7 -7 -7 -7 -7 -7 -6 -5 -4 -3 -5 -7 -5 -2 6 7 7 8 8 8 6 6 5 6 6 6 6 6
-10 -9 -9 -9 -9 -9 -9 -9 -9 -8 -8 -8 -7 -7 -7 -7 -7 -5 -4 -3 -4 -5 -6 -1 4 7 7 8 8 8 7 6 4 6 6 6 6 6
-10 -10 -9 -9 -9 -9 -9 -9 -9 -9 -8 -8 -8 -8 -6 -6 -7 -6 -5 -5 -5 -5 -5 -4 -10 7 7 7 8 8 7 6 6 5 6 6 6 6
-11 -10 -10 -11 -11 -10 -10 -10 -10 -11 -9 -9 -9 -8 -8 -7 -6 -7 -4 -3 -3 -2 -2 -3 -5 6 7 7 8 8 8 7 7 6 6 4 5 6
-11 -10 -11 -11 -11 -11 -10 -10 -10 -9 -9 -9 -8 -7 -7 -7 -6 -6 -7 -3 -2 -2 -3 -5 -7 5 7 7 7 7 7 7 7 6 7 5 5 6
-11 -11 -12 -12 -12 -12 -9 -9 -4 -7 -5 -8 -7 -6 -6 -6 -6 -6 -7 -6 -3 -2 -2 -5 0 5 7 7 7 7 7 7 6 4 5 5 6 6
-10 -10 -11 -12 -12 -11 -8 -6 -4 -4 -5 -6 -6 -6 -6 -6 -7 -6 -6 -7 -4 -3 -4 -2 -2 1 4 7 7 7 7 7 6 5 4 5 5 4
-10 -9 -11 -12 -12 -11 -10 -7 -5 -4 -5 -5 -6 -7 -7 -7 -6 -6 -5 -5 -5 -6 -2 -2 -5 -1 2 5 7 7 7 6 6 5 4 3 4 5
-11 -10 -11 -11 -12 -13 -12 -12 -10 -8 -6 -5 -5 -5 -6 -6 -5 -5 -5 -4 -3 -3 -3 -4 -9 -4 1 5 7 7 7 7 7 5 5 5 5 5
-27 -18 -12 -12 -12 -13 -13 -13 -13 -12 -11 -9 -6 -5 -5 -5 -4 -4 -3 -3 -2 -2 -2 -2 -3 -1 2 3 7 7 7 7 6 6 5 3 5 4
-26 -23 -20 -18 -13 -12 -13 -13 -13 -13 -13 -12 -11 -7 -5 -4 -4 -2 -2 -2 -1 -2 -2 -1 0 3 5 6 7 7 7 7 7 6 4 3 3 3
-29 -27 -22 -19 -18 -16 -14 -13 -13 -13 -12 -13 -13 -11 -9 -7 -4 -3 -1 -1 0 1 2 2 3 5 6 6 6 6 7 7 7 5 4 4 4 5
-30 -29 -27 -23 -22 -20 -18 -17 -14 -13 -13 -12 -12 -12 -11 -10 -7 -5 -2 1 2 2 3 3 5 6 6 6 6 6 6 6 6 6 6 6 6 6
-29 -29 -29 -28 -23 -22 -21 -19 -18 -16 -14 -13 -12 -11 -10 -8 -8 -7 -6 -4 -3 -1 0 2 4 5 5 6 6 6 6 6 6 6 7 7 6 6
-26 -27 -27 -27 -28 -25 -21 -18 -17 -20 -21 -17 -14 -12 -11 -10 -9 -8 -7 -7 -6 -3 -2 -0 1 2 3 3 4 3 3 3 4 5 5 5 6 5
Wind_Speed
20 22 23 23 25 27 28 29 29 25 37 42 36 33 32 35 34 33 36 39 42 46 43 41 39 40 40 36 33 33 33 32 36 37 34 31 31 31
22 23 24 24 27 29 31 33 33 36 43 40 37 37 34 36 36 35 36 37 36 40 47 45 43 41 40 41 34 35 35 30 33 34 32 35 36 34
22 23 24 25 27 28 30 33 37 39 46 59 54 53 50 48 45 35 41 37 39 39 39 49 48 45 43 43 40 38 40 38 37 36 35 33 40 39
24 27 27 27 28 30 32 35 38 40 45 61 58 58 58 54 50 48 46 53 47 50 48 45 51 51 49 44 46 42 40 41 37 42 38 34 35 36
29 31 30 30 32 33 34 37 40 43 46 53 63 58 59 51 49 52 52 51 52 47 40 46 48 52 53 49 47 47 46 43 41 41 41 39 39 37
30 31 34 34 36 36 38 41 43 47 48 54 62 58 53 54 50 52 51 51 57 55 43 44 46 47 55 56 50 49 49 48 48 47 46 44 40 41
30 33 35 36 36 36 40 43 44 47 46 47 57 54 55 46 51 48 55 56 56 56 56 39 50 51 54 61 57 52 51 54 51 50 48 47 44 42
32 35 38 39 41 41 42 45 49 54 56 53 56 55 55 53 47 43 48 42 49 55 58 47 47 52 56 61 65 60 53 56 57 54 51 51 50 46
34 38 42 44 41 45 47 49 54 56 64 68 65 65 56 52 44 43 42 41 48 47 32 57 48 55 56 55 64 65 59 55 59 61 55 54 52 50
34 37 42 45 43 44 49 54 59 63 66 68 74 76 66 57 49 46 45 41 43 47 44 45 47 55 56 58 59 63 63 58 55 62 60 58 54 52
34 38 40 43 43 40 46 55 63 68 60 63 69 73 70 66 54 47 51 47 49 51 48 49 59 47 54 54 57 58 63 63 57 60 64 61 56 54
36 39 40 38 37 37 43 51 61 68 60 58 61 66 70 68 65 61 44 44 47 41 46 44 58 48 37 51 54 56 62 64 62 59 57 61 58 54
35 36 36 36 37 38 39 49 67 72 64 56 55 57 60 66 65 65 65 54 42 52 46 35 56 47 43 32 48 56 57 61 62 60 61 59 59 58
27 31 31 32 33 34 35 42 34 26 46 52 52 53 56 57 59 64 62 67 58 49 49 44 46 46 46 39 33 44 53 56 59 59 62 62 58 59
22 22 24 26 27 27 26 25 19 19 23 39 44 44 48 49 50 51 54 61 66 58 56 53 49 65 26 49 42 42 42 50 54 58 59 61 61 59
21 23 29 28 27 26 23 16 12 12 20 30 35 41 42 43 42 44 46 47 49 63 56 64 61 61 55 36 47 45 46 42 46 48 53 57 61 61
19 25 32 37 40 39 35 30 19 9 11 21 32 37 37 40 43 44 46 42 46 50 51 55 60 66 62 37 43 47 48 47 45 43 41 44 46 56
26 31 35 38 42 43 45 41 37 29 19 8 16 35 38 41 42 45 46 47 45 43 46 42 43 47 54 54 51 45 52 47 47 42 35 35 38 37
33 36 39 38 38 39 44 44 43 38 31 21 10 13 24 40 47 38 47 48 45 48 44 40 43 46 45 43 40 45 46 42 44 39 37 35 33 30
34 36 37 38 38 38 39 42 42 42 40 36 32 22 12 11 19 30 43 42 43 42 37 36 45 51 47 44 34 44 45 43 42 37 37 34 33 30
34 34 35 35 36 37 38 40 40 40 41 41 40 39 33 28 27 24 23 24 25 26 33 40 52 50 48 37 34 36 43 46 40 36 35 34 35 34
33 35 35 34 33 34 35 39 41 42 41 41 42 42 44 43 41 39 35 26 19 24 28 30 37 41 39 40 38 38 38 41 41 39 34 33 32 34
30 32 34 35 35 34 33 36 38 40 41 41 41 40 41 42 39 36 34 33 28 30 27 22 19 20 22 21 26 29 30 30 33 35 31 30 31 32
Wind_Direction
275 273 272 272 273 274 273 275 275 281 284 282 283 275 267 256 261 261 262 255 247 246 251 252 248 243 247 246 243 235 235 227 221 221 224 224 225 227
281 279 278 280 278 278 278 277 273 271 272 275 274 273 268 262 256 253 254 257 255 247 248 249 249 246 245 242 242 239 227 224 223 221 226 232 229 229
281 282 281 283 283 281 278 276 275 274 273 278 276 277 274 267 259 253 249 248 253 254 247 248 248 248 242 240 237 238 230 228 230 225 232 233 230 232
283 283 283 283 284 284 281 279 278 276 275 278 279 279 278 276 269 260 248 248 251 251 255 245 245 245 243 241 236 235 234 231 233 227 230 233 229 233
284 283 285 284 282 282 280 279 279 278 276 277 279 277 274 271 272 269 260 250 244 244 247 250 242 242 242 238 237 235 236 230 233 231 230 237 233 231
288 287 288 289 289 289 287 285 284 280 276 274 274 274 272 269 263 264 264 260 250 244 246 248 244 244 240 237 236 237 234 232 230 231 236 238 237 236
290 291 291 290 286 279 278 280 281 278 269 263 267 266 264 261 254 252 258 262 260 253 245 253 249 244 241 236 235 236 238 234 232 232 233 238 241 237
289 288 287 284 282 277 270 266 263 265 264 258 259 257 257 255 253 251 253 252 257 255 248 238 243 244 242 236 233 234 236 236 233 234 233 236 238 240
287 290 290 292 286 286 285 276 267 258 254 254 253 254 252 250 250 246 242 238 245 250 247 241 248 242 245 244 236 235 236 237 233 233 235 237 238 241
295 296 296 296 294 285 281 276 271 265 258 252 249 252 252 250 245 245 241 243 249 251 249 247 244 234 243 242 242 238 238 237 234 228 233 236 239 241
302 302 302 299 294 285 277 273 272 268 262 257 254 252 249 247 243 245 242 241 247 246 244 240 238 229 232 241 242 241 240 238 235 231 233 237 239 240
316 309 306 299 296 289 282 280 276 271 264 257 254 251 247 244 239 235 237 231 232 239 236 232 238 236 214 233 238 244 238 237 236 235 234 234 236 237
314 316 314 311 305 299 292 285 277 275 258 252 253 246 242 239 236 235 233 234 232 233 236 238 238 238 209 222 227 231 239 237 233 233 235 237 234 233
326 330 323 320 317 317 308 299 293 281 252 244 243 244 232 231 231 232 233 232 231 239 235 237 235 236 209 211 219 226 235 237 236 235 233 233 234 235
349 348 347 335 335 330 312 299 298 300 270 249 239 225 220 225 231 230 233 234 233 237 242 243 236 236 250 211 220 228 229 236 238 235 232 234 233 232
1 12 21 18 10 359 346 321 287 268 257 247 236 229 229 230 228 230 230 232 235 235 236 238 239 235 242 250 220 222 229 221 234 236 236 236 238 236
7 21 24 26 28 23 19 21 5 323 259 228 232 233 233 233 233 232 232 225 223 229 235 241 238 235 236 248 216 219 229 232 240 242 235 238 238 237
30 32 30 30 29 26 25 29 29 20 5 308 243 233 236 240 237 229 227 217 221 225 232 233 233 234 240 251 225 230 231 233 234 234 235 236 236 242
42 39 37 35 30 30 29 31 31 27 30 30 28 246 235 238 238 235 217 219 222 231 231 225 217 224 215 209 210 221 232 234 233 228 228 232 236 243
42 39 36 34 33 35 33 30 30 31 35 38 41 51 85 152 191 216 223 221 217 206 213 218 220 219 211 208 204 216 227 232 233 227 227 231 238 243
41 38 35 33 33 33 36 35 34 31 31 37 42 49 59 76 91 102 140 186 203 211 214 223 215 206 208 212 207 213 222 225 228 227 224 227 233 240
39 36 34 32 31 31 31 35 29 30 34 34 38 43 51 56 63 73 83 101 140 164 178 182 189 198 202 204 204 206 204 212 219 225 224 229 228 231
36 34 31 29 29 29 29 30 29 24 26 30 37 41 43 51 56 61 69 73 82 94 101 116 147 173 176 175 186 183 185 194 201 206 209 216 225 236
Height
1483 1483 1483 1484 1485 1485 1486 1487 1487 1480 1472 1471 1477 1484 1489 1493 1494 1495 1497 1499 1503 1507 1510 1512 1514 1518 1520 1523 1527 1528 1530 1531 1535 1539 1542 1545 1548 1551
1476 1476 1477 1478 1478 1478 1478 1479 1480 1480 1470 1465 1470 1474 1479 1482 1486 1488 1488 1490 1492 1496 1499 1502 1505 1509 1512 1515 1519 1522 1524 1526 1530 1534 1537 1539 1542 1545
1470 1470 1470 1470 1469 1470 1471 1472 1471 1473 1464 1452 1459 1462 1465 1470 1474 1479 1480 1479 1481 1484 1487 1491 1495 1499 1503 1506 1510 1515 1517 1520 1524 1527 1531 1532 1535 1538
1464 1463 1463 1465 1462 1463 1463 1463 1463 1464 1461 1445 1450 1451 1452 1456 1459 1463 1468 1470 1470 1471 1475 1479 1484 1489 1493 1497 1501 1506 1509 1513 1516 1519 1523 1527 1529 1532
1455 1455 1455 1456 1454 1455 1454 1453 1453 1453 1451 1444 1433 1441 1442 1445 1445 1447 1450 1455 1459 1461 1463 1467 1471 1476 1481 1486 1491 1496 1500 1504 1508 1511 1515 1519 1523 1525
1447 1445 1446 1444 1444 1445 1444 1443 1443 1440 1439 1435 1426 1425 1428 1431 1434 1433 1435 1440 1442 1449 1452 1453 1459 1463 1468 1475 1479 1484 1491 1494 1499 1503 1507 1511 1514 1517
1438 1437 1436 1435 1436 1436 1434 1432 1432 1430 1428 1424 1415 1414 1412 1417 1415 1422 1421 1426 1428 1434 1440 1441 1445 1451 1452 1460 1465 1471 1478 1484 1488 1492 1496 1501 1505 1508
1429 1428 1427 1426 1425 1425 1424 1424 1423 1417 1412 1413 1404 1396 1396 1401 1405 1408 1409 1415 1414 1421 1425 1428 1432 1433 1438 1442 1450 1457 1465 1471 1477 1481 1486 1491 1495 1498
1422 1419 1414 1413 1412 1410 1406 1403 1400 1399 1394 1392 1388 1382 1383 1388 1398 1399 1397 1399 1399 1409 1418 1415 1421 1418 1425 1429 1435 1444 1450 1457 1461 1469 1474 1480 1485 1489
1412 1408 1403 1400 1398 1396 1390 1382 1375 1370 1369 1373 1371 1366 1370 1375 1382 1386 1388 1389 1391 1394 1405 1404 1409 1403 1412 1417 1421 1429 1437 1443 1449 1456 1463 1468 1474 1479
1403 1397 1391 1385 1384 1383 1375 1366 1354 1343 1349 1347 1348 1350 1356 1358 1366 1375 1372 1376 1371 1374 1387 1392 1394 1394 1397 1402 1408 1414 1422 1430 1436 1444 1451 1457 1463 1468
1391 1385 1379 1373 1367 1365 1359 1350 1333 1321 1328 1328 1327 1330 1336 1340 1348 1355 1358 1358 1358 1365 1369 1379 1381 1387 1382 1388 1395 1400 1407 1415 1424 1431 1438 1444 1451 1457
1381 1374 1366 1360 1355 1347 1340 1328 1311 1300 1301 1310 1312 1314 1317 1322 1327 1334 1342 1341 1343 1344 1358 1367 1366 1372 1367 1375 1381 1387 1391 1400 1408 1417 1424 1430 1436 1443
1374 1365 1357 1351 1339 1327 1319 1310 1293 1282 1282 1292 1296 1297 1298 1303 1309 1315 1322 1328 1330 1331 1347 1356 1356 1361 1354 1363 1369 1376 1379 1386 1393 1401 1408 1415 1422 1429
1369 1361 1350 1340 1329 1320 1310 1296 1288 1282 1278 1280 1280 1282 1286 1293 1301 1307 1313 1316 1319 1323 1334 1341 1344 1345 1346 1350 1358 1364 1372 1373 1378 1387 1395 1399 1406 1411
1365 1356 1346 1337 1327 1314 1304 1289 1281 1279 1279 1277 1278 1280 1284 1288 1292 1296 1301 1305 1307 1309 1317 1322 1329 1335 1338 1342 1347 1355 1359 1363 1366 1374 1381 1387 1392 1397
1362 1351 1344 1330 1320 1312 1302 1288 1278 1275 1274 1274 1276 1277 1279 1281 1283 1286 1289 1294 1294 1296 1303 1308 1313 1321 1330 1336 1336 1343 1348 1354 1358 1365 1370 1373 1377 1381
1359 1350 1342 1332 1324 1318 1306 1293 1284 1281 1276 1271 1270 1271 1272 1273 1273 1276 1278 1280 1283 1287 1291 1296 1304 1317 1323 1324 1327 1332 1338 1344 1349 1356 1361 1364 1368 1369
1361 1353 1345 1338 1330 1324 1313 1302 1294 1289 1281 1273 1267 1263 1260 1258 1260 1262 1265 1270 1275 1275 1279 1288 1298 1308 1309 1309 1316 1322 1329 1333 1340 1347 1351 1354 1358 1363
1363 1357 1351 1345 1336 1328 1319 1312 1304 1296 1287 1278 1270 1262 1255 1252 1249 1249 1254 1260 1264 1272 1274 1279 1289 1293 1296 1299 1307 1314 1320 1325 1331 1336 1342 1348 1352 1358
1367 1362 1357 1351 1343 1336 1328 1321 1314 1307 1296 1287 1277 1267 1261 1250 1241 1239 1241 1247 1254 1262 1267 1273 1278 1282 1288 1296 1300 1304 1311 1317 1323 1328 1332 1338 1343 1350
1372 1367 1362 1356 1350 1343 1335 1327 1320 1313 1306 1293 1284 1273 1262 1254 1246 1242 1244 1250 1257 1260 1265 1265 1266 1274 1281 1286 1292 1297 1303 1307 1311 1319 1324 1329 1335 1338
1376 1371 1366 1360 1354 1347 1341 1334 1327 1319 1309 1303 1293 1283 1276 1267 1264 1263 1265 1267 1268 1261 1260 1262 1266 1272 1277 1282 1287 1293 1296 1300 1305 1309 1315 1321 1326 1332